• In Russia
  • List of Countries
  • For 7 days
  • Water Temperature
  • Satellite Maps
  • Weather Map
  • Weather Widgets
  • user-avatar
    Login

    Hourly Weather Igls

    Today, 17 October, Tuesday

    Time Temperature Precipitation Wind Pressure Humidity
    00:00 +12°C° 0 mm 1 mps 691 mmHg 59%
    01:00 +12°C° 0 mm 1 mps 691 mmHg 57%
    02:00 +12°C° 0 mm 1 mps 691 mmHg 56%
    03:00 +12°C° 0 mm 1 mps 691 mmHg 56%
    04:00 +11°C° 0 mm 1 mps 691 mmHg 55%
    05:00 +11°C° 0 mm 1 mps 691 mmHg 56%
    06:00 +11°C° 0 mm 1 mps 691 mmHg 56%
    07:00 +11°C° 0 mm 1 mps 691 mmHg 57%
    08:00 +14°C° 0 mm 1 mps 691 mmHg 50%
    09:00 +19°C° 0 mm 1 mps 692 mmHg 44%
    10:00 +20°C° 0 mm 0 mps 692 mmHg 37%
    11:00 +23°C° 0 mm 1 mps 692 mmHg 36%
    12:00 +23°C° 0 mm 1 mps 691 mmHg 34%
    13:00 +24°C° 0 mm 2 mps 691 mmHg 32%
    14:00 +23°C° 0 mm 2 mps 691 mmHg 39%
    15:00 +22°C° 0 mm 1 mps 690 mmHg 46%
    16:00 +21°C° 0 mm 1 mps 689 mmHg 53%
    17:00 +19°C° 0 mm 1 mps 689 mmHg 57%
    18:00 +15°C° 0 mm 2 mps 688 mmHg 61%
    19:00 +13°C° 0 mm 2 mps 688 mmHg 65%
    20:00 +13°C° 0 mm 2 mps 688 mmHg 63%
    21:00 +12°C° 0 mm 2 mps 688 mmHg 62%
    22:00 +12°C° 0 mm 2 mps 688 mmHg 60%
    23:00 +12°C° 0 mm 2 mps 687 mmHg 60%

    Tomorrow, 18 October, Wednesday

    Time Temperature Precipitation Wind Pressure Humidity
    00:00 +12°C° 0 mm 2 mps 687 mmHg 61%
    01:00 +10°C° 0 mm 2 mps 687 mmHg 61%
    02:00 +10°C° 0 mm 2 mps 687 mmHg 62%
    03:00 +10°C° 0 mm 2 mps 686 mmHg 62%
    04:00 +9°C° 0 mm 2 mps 686 mmHg 63%
    05:00 +9°C° 0 mm 2 mps 686 mmHg 62%
    06:00 +9°C° 0 mm 2 mps 686 mmHg 61%
    07:00 +10°C° 0 mm 1 mps 686 mmHg 59%
    08:00 +13°C° 0 mm 1 mps 686 mmHg 52%
    09:00 +15°C° 0 mm 1 mps 686 mmHg 45%
    10:00 +19°C° 0 mm 1 mps 687 mmHg 38%
    11:00 +20°C° 0 mm 1 mps 686 mmHg 36%
    12:00 +21°C° 0 mm 1 mps 686 mmHg 34%
    13:00 +20°C° 0 mm 2 mps 686 mmHg 33%
    14:00 +20°C° 0 mm 2 mps 686 mmHg 39%
    15:00 +20°C° 0 mm 1 mps 685 mmHg 44%
    16:00 +19°C° 0 mm 1 mps 685 mmHg 50%
    17:00 +16°C° 0 mm 1 mps 685 mmHg 57%
    18:00 +13°C° 0 mm 1 mps 685 mmHg 64%
    19:00 +11°C° 0 mm 1 mps 684 mmHg 71%
    20:00 +10°C° 0 mm 1 mps 684 mmHg 68%
    21:00 +10°C° 0 mm 1 mps 685 mmHg 66%
    22:00 +9°C° 0 mm 2 mps 685 mmHg 63%
    23:00 +9°C° 0 mm 2 mps 685 mmHg 63%

    Day after tomorrow, 19 October, Thursday

    Time Temperature Precipitation Wind Pressure Humidity
    00:00 +9°C° 0 mm 2 mps 685 mmHg 63%
    01:00 +8°C° 0 mm 2 mps 685 mmHg 63%
    02:00 +8°C° 0 mm 2 mps 684 mmHg 63%
    03:00 +8°C° 0 mm 2 mps 684 mmHg 62%
    04:00 +8°C° 0 mm 2 mps 684 mmHg 62%
    05:00 +8°C° 0 mm 2 mps 684 mmHg 61%
    06:00 +8°C° 0 mm 2 mps 684 mmHg 60%
    07:00 +8°C° 0 mm 2 mps 684 mmHg 58%
    08:00 +12°C° 0 mm 1 mps 684 mmHg 50%
    09:00 +14°C° 0 mm 1 mps 685 mmHg 43%
    10:00 +18°C° 0 mm 1 mps 685 mmHg 35%
    11:00 +19°C° 0 mm 1 mps 685 mmHg 33%
    12:00 +20°C° 0 mm 1 mps 685 mmHg 31%
    13:00 +20°C° 0 mm 2 mps 685 mmHg 29%
    14:00 +20°C° 0 mm 1 mps 685 mmHg 36%
    15:00 +19°C° 0 mm 1 mps 684 mmHg 43%
    16:00 +18°C° 0 mm 1 mps 684 mmHg 50%
    17:00 +15°C° 0 mm 1 mps 684 mmHg 54%
    18:00 +13°C° 0 mm 1 mps 684 mmHg 57%
    19:00 +11°C° 0 mm 1 mps 684 mmHg 61%
    20:00 +10°C° 0 mm 2 mps 684 mmHg 61%
    21:00 +10°C° 0 mm 2 mps 684 mmHg 60%
    22:00 +10°C° 0 mm 2 mps 684 mmHg 59%
    23:00 +10°C° 0 mm 2 mps 684 mmHg 61%

    20 October, Friday

    Time Temperature Precipitation Wind Pressure Humidity
    00:00 +10°C° 0 mm 2 mps 684 mmHg 62%
    01:00 +9°C° 0 mm 2 mps 684 mmHg 63%
    02:00 +9°C° 0 mm 2 mps 684 mmHg 65%
    03:00 +9°C° 0 mm 2 mps 684 mmHg 66%
    04:00 +9°C° 0 mm 2 mps 684 mmHg 67%
    05:00 +10°C° 0 mm 1 mps 684 mmHg 67%
    06:00 +9°C° 0 mm 1 mps 684 mmHg 67%
    07:00 +9°C° 0 mm 1 mps 685 mmHg 68%
    08:00 +12°C° 0 mm 1 mps 685 mmHg 61%
    09:00 +14°C° 0 mm 1 mps 686 mmHg 54%
    10:00 +16°C° 0 mm 0 mps 687 mmHg 48%
    11:00 +19°C° 0 mm 1 mps 687 mmHg 47%
    12:00 +19°C° 0 mm 1 mps 687 mmHg 46%
    13:00 +20°C° 0 mm 1 mps 687 mmHg 45%
    14:00 +19°C° 0 mm 1 mps 687 mmHg 49%
    15:00 +19°C° 0 mm 1 mps 687 mmHg 54%
    16:00 +18°C° 0 mm 1 mps 687 mmHg 59%
    17:00 +15°C° 0 mm 1 mps 686 mmHg 67%
    18:00 +13°C° 0 mm 1 mps 686 mmHg 75%
    19:00 +11°C° 0 mm 1 mps 686 mmHg 82%
    20:00 +11°C° 0 mm 1 mps 686 mmHg 81%
    21:00 +10°C° 0 mm 2 mps 686 mmHg 80%
    22:00 +10°C° 0 mm 2 mps 687 mmHg 79%
    23:00 +10°C° 0 mm 2 mps 686 mmHg 80%

    21 October, Saturday

    Time Temperature Precipitation Wind Pressure Humidity
    00:00 +9°C° 0 mm 2 mps 686 mmHg 80%
    01:00 +9°C° 0 mm 2 mps 686 mmHg 81%
    02:00 +9°C° 0 mm 2 mps 686 mmHg 82%
    03:00 +9°C° 0 mm 2 mps 686 mmHg 82%
    04:00 +9°C° 0 mm 2 mps 685 mmHg 83%
    05:00 +9°C° 0 mm 2 mps 685 mmHg 83%
    06:00 +9°C° 0 mm 2 mps 685 mmHg 82%
    07:00 +9°C° 0 mm 2 mps 685 mmHg 82%
    08:00 +12°C° 0 mm 2 mps 685 mmHg 73%
    09:00 +15°C° 0 mm 2 mps 686 mmHg 63%
    10:00 +18°C° 0 mm 2 mps 686 mmHg 54%
    11:00 +19°C° 0 mm 2 mps 686 mmHg 51%
    12:00 +20°C° 0 mm 2 mps 686 mmHg 47%
    13:00 +21°C° 0 mm 2 mps 685 mmHg 43%
    14:00 +20°C° 0 mm 2 mps 685 mmHg 50%
    15:00 +19°C° 0 mm 2 mps 685 mmHg 56%
    16:00 +18°C° 0 mm 2 mps 685 mmHg 62%
    17:00 +16°C° 0 mm 2 mps 685 mmHg 73%
    18:00 +14°C° 0 mm 1 mps 684 mmHg 83%
    19:00 +12°C° 0 mm 1 mps 684 mmHg 93%
    20:00 +12°C° 0.7 mm 1 mps 684 mmHg 94%
    21:00 +12°C° 0.7 mm 1 mps 684 mmHg 96%
    22:00 +12°C° 0.7 mm 1 mps 684 mmHg 97%
    23:00 +11°C° 1.1 mm 1 mps 684 mmHg 97%

    22 October, Sunday

    Time Temperature Precipitation Wind Pressure Humidity
    00:00 +11°C° 1.1 mm 1 mps 684 mmHg 97%
    01:00 +11°C° 1.1 mm 1 mps 684 mmHg 97%
    02:00 +10°C° 1.3 mm 1 mps 684 mmHg 97%
    03:00 +10°C° 1.3 mm 1 mps 683 mmHg 97%
    04:00 +10°C° 1.3 mm 1 mps 683 mmHg 97%
    05:00 +8°C° 2.5 mm 2 mps 682 mmHg 97%
    06:00 +8°C° 2.5 mm 2 mps 682 mmHg 97%
    07:00 +7°C° 2.5 mm 2 mps 682 mmHg 96%
    08:00 +7°C° 2 mm 2 mps 682 mmHg 96%
    09:00 +7°C° 2 mm 2 mps 682 mmHg 95%
    10:00 +7°C° 2 mm 2 mps 682 mmHg 95%
    11:00 +7°C° 1.2 mm 2 mps 682 mmHg 94%
    12:00 +7°C° 1.2 mm 2 mps 682 mmHg 93%
    13:00 +7°C° 1.2 mm 2 mps 682 mmHg 92%
    14:00 +5°C° 1 mm 3 mps 682 mmHg 93%
    15:00 +5°C° 1 mm 3 mps 682 mmHg 93%
    16:00 +5°C° 1 mm 3 mps 682 mmHg 93%
    17:00 +4°C° 0.6 mm 3 mps 682 mmHg 94%
    18:00 +3°C° 0.6 mm 3 mps 683 mmHg 94%
    19:00 +3°C° 0.6 mm 3 mps 683 mmHg 95%
    20:00 +3°C° 0.3 mm 2 mps 683 mmHg 94%
    21:00 +3°C° 0.3 mm 2 mps 684 mmHg 94%
    22:00 +3°C° 0.3 mm 2 mps 684 mmHg 93%
    23:00 +2°C° 0.2 mm 2 mps 684 mmHg 93%
    Show more